AUL112 URKA-ULMM

Flight info

Callsign AUL112
Flight time 3h 32m
Altitude 36000
Route RUDOL2E RUDOL W316 AMEPU/K0835F370 DCT KL/K0833F380 L91 KANON T748 RUNUD N166 UMSIS N72 EKTUT L4 BULAT/K0824F390 N156 UPEMA/K0830F380 DCT UREPI P65 MOVIT DCT ASGOR ASGOR2M
Aircraft A20N/M-SDE2E3FGHIRWXY/LB1

Departure

Time 2026-05-04 15:12
Airport Anapa Vityazevo Airport (URKA)

Arrival

Time 2026-05-04 18:44
Airport Emperor Nicholas II Murmansk Airport (ULMM)
Time Latitude Longitude Altitude Speed Heading
2026-05-04 14:52 45.00277 37.34255 184 ft 0 kts 313°
2026-05-04 15:07 45.00278 37.34254 211 ft 1 kts 313°
2026-05-04 15:07 45.00288 37.34242 192 ft 5 kts 324°
2026-05-04 15:07 45.00331 37.34256 196 ft 6 kts 34°
2026-05-04 15:08 45.00347 37.34315 190 ft 8 kts 115°
2026-05-04 15:08 45.00303 37.34396 190 ft 13 kts 131°
2026-05-04 15:08 45.00219 37.34424 183 ft 16 kts 216°
2026-05-04 15:08 45.00126 37.34304 183 ft 21 kts 223°
2026-05-04 15:09 45.00050 37.34206 184 ft 24 kts 222°
2026-05-04 15:09 44.99916 37.34036 185 ft 28 kts 221°
2026-05-04 15:09 44.99759 37.33834 185 ft 33 kts 222°
2026-05-04 15:10 44.99546 37.33592 184 ft 12 kts 182°
2026-05-04 15:10 44.99460 37.33625 181 ft 15 kts 159°
2026-05-04 15:10 44.99449 37.33750 175 ft 0 kts 43°
2026-05-04 15:11 44.99461 37.33766 175 ft 18 kts 43°
2026-05-04 15:11 44.99711 37.34087 178 ft 80 kts 42°
2026-05-04 15:11 45.00286 37.34822 176 ft 142 kts 43°
2026-05-04 15:11 45.01096 37.35839 517 ft 154 kts 44°
2026-05-04 15:12 45.01846 37.36766 1442 ft 134 kts 44°
2026-05-04 15:12 45.02556 37.37629 2038 ft 143 kts 43°
2026-05-04 15:12 45.03418 37.38564 2286 ft 169 kts 41°
2026-05-04 15:12 45.04426 37.39597 2510 ft 194 kts 40°
2026-05-04 15:13 45.05615 37.40796 2748 ft 224 kts 39°
2026-05-04 15:13 45.06930 37.42110 3425 ft 236 kts 39°
2026-05-04 15:13 45.08302 37.43479 4107 ft 247 kts 38°
2026-05-04 15:13 45.09722 37.44906 4877 ft 254 kts 38°
2026-05-04 15:14 45.11173 37.46381 5681 ft 258 kts 37°
2026-05-04 15:14 45.12637 37.47883 6553 ft 260 kts 38°
2026-05-04 15:14 45.14095 37.49389 7293 ft 266 kts 39°
2026-05-04 15:14 45.15610 37.50961 8007 ft 274 kts 37°
2026-05-04 15:15 45.17164 37.52575 8791 ft 278 kts 37°
2026-05-04 15:15 45.18740 37.54217 9580 ft 284 kts 37°
2026-05-04 15:15 45.20356 37.55905 10189 ft 295 kts 37°
2026-05-04 15:16 45.23895 37.59599 10745 ft 337 kts 37°
2026-05-04 15:16 45.25815 37.61600 11030 ft 356 kts 37°
2026-05-04 15:16 45.29917 37.65876 12263 ft 373 kts 38°
2026-05-04 15:17 45.32021 37.68074 12971 ft 377 kts 37°
2026-05-04 15:17 45.36305 37.72554 14318 ft 386 kts 37°
2026-05-04 15:17 45.38478 37.74832 15025 ft 388 kts 38°
2026-05-04 15:18 45.40655 37.77115 15708 ft 390 kts 37°
2026-05-04 15:18 45.42814 37.79379 16442 ft 391 kts 38°
2026-05-04 15:18 45.45005 37.81686 17122 ft 393 kts 38°
2026-05-04 15:19 45.49422 37.86360 18437 ft 397 kts 38°
2026-05-04 15:19 45.51650 37.88726 18960 ft 401 kts 38°
2026-05-04 15:19 45.56136 37.93497 20120 ft 404 kts 38°
2026-05-04 15:20 45.58393 37.95901 20690 ft 405 kts 38°
2026-05-04 15:20 45.60660 37.98316 21226 ft 408 kts 38°
2026-05-04 15:20 45.62944 38.00751 21725 ft 411 kts 38°
2026-05-04 15:20 45.65245 38.03208 22252 ft 413 kts 38°
2026-05-04 15:21 45.67526 38.05644 22769 ft 415 kts 38°
2026-05-04 15:21 45.69846 38.08126 23286 ft 418 kts 38°
2026-05-04 15:21 45.74544 38.13159 24139 ft 423 kts 38°
2026-05-04 15:22 45.76910 38.15698 24490 ft 427 kts 38°
2026-05-04 15:22 45.79292 38.18258 24885 ft 429 kts 38°
2026-05-04 15:22 45.84062 38.23390 25667 ft 433 kts 39°
2026-05-04 15:23 45.86484 38.26000 26059 ft 435 kts 39°
2026-05-04 15:23 45.88914 38.28623 26428 ft 438 kts 39°
2026-05-04 15:23 45.91358 38.31263 26789 ft 440 kts 39°
2026-05-04 15:23 45.93812 38.33918 27093 ft 443 kts 39°
2026-05-04 15:24 45.98733 38.39249 27837 ft 446 kts 39°
2026-05-04 15:24 46.03685 38.44623 28767 ft 445 kts 39°
2026-05-04 15:25 46.06151 38.47304 29217 ft 444 kts 39°
2026-05-04 15:25 46.08617 38.49987 29689 ft 442 kts 39°
2026-05-04 15:25 46.11069 38.52660 30050 ft 443 kts 39°
2026-05-04 15:26 46.15962 38.58004 30740 ft 442 kts 39°
2026-05-04 15:26 46.18410 38.60682 31124 ft 440 kts 39°
2026-05-04 15:26 46.23275 38.66012 31864 ft 437 kts 39°
2026-05-04 15:27 46.25697 38.68671 32220 ft 436 kts 39°
2026-05-04 15:27 46.30521 38.73979 32778 ft 436 kts 39°
2026-05-04 15:28 46.35308 38.79257 33424 ft 433 kts 39°
2026-05-04 15:28 46.37702 38.81901 33746 ft 432 kts 39°
2026-05-04 15:28 46.42480 38.87188 34256 ft 431 kts 39°
2026-05-04 15:29 46.44865 38.89832 34416 ft 432 kts 39°
2026-05-04 15:30 46.54460 39.00504 35079 ft 435 kts 40°
2026-05-04 15:30 46.61416 39.08934 35558 ft 436 kts 42°
2026-05-04 15:31 46.66042 39.14741 35743 ft 440 kts 42°
2026-05-04 15:31 46.68375 39.17662 35903 ft 440 kts 42°
2026-05-04 15:32 46.75360 39.26377 36008 ft 442 kts 42°
2026-05-04 15:32 46.80028 39.32200 36006 ft 441 kts 42°
2026-05-04 15:34 46.91730 39.46864 36013 ft 443 kts 42°
2026-05-04 15:34 46.98721 39.55668 36011 ft 443 kts 42°
2026-05-04 15:35 47.05751 39.64553 36013 ft 445 kts 42°
2026-05-04 15:36 47.12745 39.73424 36015 ft 445 kts 42°
2026-05-04 15:36 47.17476 39.79294 36017 ft 446 kts 37°
2026-05-04 15:37 47.23004 39.83518 36020 ft 450 kts 19°
2026-05-04 15:37 47.29024 39.86200 36019 ft 452 kts 16°
2026-05-04 15:38 47.35088 39.88565 36020 ft 453 kts 15°
2026-05-04 15:38 47.41201 39.90926 36020 ft 455 kts 15°
2026-05-04 15:39 47.47332 39.93341 36020 ft 456 kts 15°
2026-05-04 15:40 47.56492 39.96999 36020 ft 456 kts 15°
2026-05-04 15:40 47.62623 39.99459 36020 ft 457 kts 15°
2026-05-04 15:41 47.68775 40.01933 36021 ft 458 kts 15°
2026-05-04 15:41 47.74939 40.04415 36022 ft 458 kts 15°
2026-05-04 15:42 47.81057 40.06885 36025 ft 459 kts 15°
2026-05-04 15:42 47.87222 40.09380 36024 ft 459 kts 14°
2026-05-04 15:43 47.93445 40.11519 36204 ft 459 kts 11°
2026-05-04 15:43 47.96581 40.12429 36390 ft 459 kts 10°
2026-05-04 15:43 47.99719 40.13310 36540 ft 459 kts 10°
2026-05-04 15:43 48.02863 40.14195 36673 ft 459 kts 10°
2026-05-04 15:44 48.05999 40.15089 36939 ft 457 kts 10°
2026-05-04 15:44 48.09115 40.15958 37144 ft 455 kts
2026-05-04 15:44 48.12241 40.16695 37301 ft 454 kts
2026-05-04 15:44 48.15371 40.17345 37464 ft 454 kts
2026-05-04 15:45 48.18462 40.17953 37631 ft 453 kts
2026-05-04 15:45 48.24740 40.19181 37814 ft 455 kts
2026-05-04 15:45 48.27880 40.19810 37995 ft 453 kts
2026-05-04 15:46 48.31012 40.20448 38027 ft 455 kts
2026-05-04 15:46 48.37285 40.21744 38041 ft 454 kts
2026-05-04 15:47 48.43525 40.23044 38034 ft 453 kts
2026-05-04 15:47 48.49730 40.24339 38033 ft 453 kts
2026-05-04 15:48 48.55980 40.25643 38032 ft 453 kts
2026-05-04 15:48 48.65342 40.27601 38036 ft 453 kts
2026-05-04 15:49 48.71595 40.28913 38036 ft 453 kts
2026-05-04 15:49 48.77840 40.30228 38029 ft 453 kts
2026-05-04 15:50 48.84099 40.31548 38034 ft 453 kts
2026-05-04 15:50 48.90353 40.32872 38033 ft 454 kts
2026-05-04 15:51 48.96570 40.34194 38031 ft 454 kts
2026-05-04 15:51 49.02820 40.35527 38034 ft 454 kts
2026-05-04 15:52 49.09081 40.36865 38034 ft 453 kts
2026-05-04 15:52 49.15340 40.38207 38028 ft 453 kts
2026-05-04 15:53 49.21550 40.39541 38031 ft 452 kts
2026-05-04 15:53 49.27786 40.40884 38028 ft 452 kts
2026-05-04 15:54 49.34027 40.42232 38024 ft 452 kts
2026-05-04 15:54 49.40230 40.43575 38026 ft 452 kts
2026-05-04 15:55 49.46459 40.44928 38026 ft 451 kts
2026-05-04 15:55 49.52687 40.46223 38025 ft 451 kts
2026-05-04 15:56 49.58937 40.46812 38024 ft 450 kts
2026-05-04 15:56 49.65198 40.47255 38021 ft 450 kts
2026-05-04 15:57 49.71448 40.47662 38021 ft 449 kts
2026-05-04 15:57 49.76642 40.48005 38019 ft 449 kts
2026-05-04 15:58 49.83907 40.48496 38016 ft 449 kts
2026-05-04 15:58 49.90150 40.48924 38019 ft 449 kts
2026-05-04 15:59 49.95339 40.49281 38017 ft 449 kts
2026-05-04 15:59 50.01587 40.49711 38016 ft 448 kts
2026-05-04 16:00 50.07785 40.49122 38019 ft 445 kts 345°
2026-05-04 16:00 50.13755 40.46545 38018 ft 445 kts 341°
2026-05-04 16:01 50.19657 40.43561 38021 ft 446 kts 340°
2026-05-04 16:01 50.25503 40.40522 38022 ft 445 kts 340°
2026-05-04 16:02 50.31378 40.37489 38021 ft 444 kts 340°
2026-05-04 16:03 50.40205 40.32962 38021 ft 444 kts 340°
2026-05-04 16:03 50.46088 40.29942 38021 ft 444 kts 340°
2026-05-04 16:04 50.51967 40.26914 38021 ft 444 kts 340°
2026-05-04 16:04 50.60752 40.22373 38021 ft 445 kts 340°
2026-05-04 16:05 50.66635 40.19322 38021 ft 444 kts 340°
2026-05-04 16:06 50.75455 40.14733 38020 ft 444 kts 340°
2026-05-04 16:07 50.87186 40.08601 38018 ft 444 kts 340°
2026-05-04 16:08 50.98934 40.02429 38018 ft 444 kts 340°
2026-05-04 16:09 51.13557 39.94700 38017 ft 443 kts 340°
2026-05-04 16:10 51.25259 39.88472 38009 ft 443 kts 340°
2026-05-04 16:11 51.36956 39.82212 38009 ft 443 kts 340°
2026-05-04 16:12 51.54454 39.72786 38004 ft 443 kts 340°
2026-05-04 16:13 51.66141 39.66447 38001 ft 443 kts 340°
2026-05-04 16:14 51.77298 39.58344 37997 ft 440 kts 327°
2026-05-04 16:16 51.90177 39.44897 37990 ft 440 kts 326°
2026-05-04 16:17 52.02972 39.31395 37974 ft 439 kts 326°
2026-05-04 16:18 52.13223 39.20535 37981 ft 439 kts 326°
2026-05-04 16:19 52.25933 39.06973 37972 ft 438 kts 326°
2026-05-04 16:20 52.38891 38.93851 37966 ft 439 kts 338°
2026-05-04 16:22 52.53758 38.88317 37957 ft 438 kts 348°
2026-05-04 16:23 52.71719 38.82763 37954 ft 438 kts 348°
2026-05-04 16:25 52.89654 38.77074 37947 ft 438 kts 348°
2026-05-04 16:26 53.10585 38.70380 37937 ft 438 kts 348°
2026-05-04 16:28 53.25542 38.65556 37933 ft 437 kts 347°
2026-05-04 16:29 53.46425 38.58762 37932 ft 436 kts 347°
2026-05-04 16:31 53.61312 38.53877 37930 ft 436 kts 347°
2026-05-04 16:32 53.79113 38.47691 37932 ft 435 kts 344°
2026-05-04 16:33 53.90857 38.42604 37929 ft 435 kts 344°
2026-05-04 16:34 53.99631 38.38836 37917 ft 433 kts 344°
2026-05-04 16:35 54.17123 38.31329 37929 ft 433 kts 344°
2026-05-04 16:36 54.25885 38.27543 37924 ft 432 kts 344°
2026-05-04 16:37 54.34610 38.23787 37920 ft 431 kts 346°
2026-05-04 16:38 54.46417 38.20279 37920 ft 432 kts 349°
2026-05-04 16:39 54.61215 38.16142 37908 ft 430 kts 348°
2026-05-04 16:40 54.73031 38.12726 37904 ft 430 kts 348°
2026-05-04 16:41 54.87749 38.08451 37901 ft 430 kts 348°
2026-05-04 16:43 55.02498 38.04137 37895 ft 429 kts 348°
2026-05-04 16:43 55.11300 38.01545 37892 ft 429 kts 348°
2026-05-04 16:45 55.28951 37.96316 37885 ft 429 kts 347°
2026-05-04 16:46 55.43196 37.89288 37883 ft 425 kts 331°
2026-05-04 16:47 55.53638 37.79530 37881 ft 425 kts 329°
2026-05-04 16:48 55.63400 37.71109 37861 ft 429 kts 342°
2026-05-04 16:49 55.69343 37.69784 37860 ft 434 kts
2026-05-04 16:49 55.75343 37.70696 38051 ft 436 kts
2026-05-04 16:50 55.81363 37.72040 38332 ft 436 kts
2026-05-04 16:50 55.87352 37.73418 38562 ft 436 kts
2026-05-04 16:51 55.93386 37.74762 38739 ft 436 kts
2026-05-04 16:51 55.96396 37.75420 38807 ft 436 kts
2026-05-04 16:52 56.08478 37.78048 38854 ft 439 kts
2026-05-04 16:53 56.17576 37.80043 38850 ft 438 kts
2026-05-04 16:54 56.29698 37.82716 38849 ft 438 kts
2026-05-04 16:55 56.47837 37.86748 38856 ft 439 kts
2026-05-04 16:56 56.62992 37.90147 38837 ft 440 kts
2026-05-04 16:57 56.72126 37.92208 38831 ft 441 kts
2026-05-04 16:58 56.84310 37.94976 38822 ft 441 kts
2026-05-04 17:00 57.02555 37.99150 38817 ft 442 kts
2026-05-04 17:01 57.17815 38.01685 38815 ft 441 kts
2026-05-04 17:02 57.30069 38.03589 38813 ft 441 kts
2026-05-04 17:03 57.39257 38.05059 38807 ft 442 kts
2026-05-04 17:03 57.48441 38.06535 38805 ft 442 kts
2026-05-04 17:04 57.60657 38.08507 38804 ft 442 kts
2026-05-04 17:05 57.72939 38.10504 38798 ft 443 kts
2026-05-04 17:06 57.82150 38.12011 38793 ft 443 kts
2026-05-04 17:07 57.90331 38.13355 38796 ft 443 kts
2026-05-04 17:07 57.97469 38.14537 38786 ft 443 kts
2026-05-04 17:08 58.06720 38.16076 38788 ft 445 kts
2026-05-04 17:09 58.12889 38.17106 38787 ft 445 kts
2026-05-04 17:09 58.19050 38.18140 38782 ft 445 kts
2026-05-04 17:10 58.34448 38.20737 38779 ft 445 kts
2026-05-04 17:11 58.40630 38.21786 38773 ft 445 kts
2026-05-04 17:12 58.49898 38.23369 38779 ft 446 kts
2026-05-04 17:13 58.65374 38.26024 38768 ft 446 kts
2026-05-04 17:14 58.74455 38.24651 38764 ft 436 kts 344°
2026-05-04 17:14 58.77436 38.23494 38763 ft 436 kts 343°
2026-05-04 17:15 58.86331 38.19688 38764 ft 436 kts 342°
2026-05-04 17:16 58.98187 38.14575 38759 ft 436 kts 342°
2026-05-04 17:17 59.09996 38.09507 38542 ft 435 kts 342°
2026-05-04 17:17 59.18884 38.05668 37755 ft 436 kts 342°
2026-05-04 17:18 59.21851 38.04381 37714 ft 436 kts 342°
2026-05-04 17:19 59.33794 37.99623 37719 ft 440 kts 345°
2026-05-04 17:20 59.45820 37.95601 37729 ft 439 kts 344°
2026-05-04 17:20 59.54857 37.92487 37723 ft 439 kts 344°
2026-05-04 17:21 59.66851 37.88307 37722 ft 440 kts 344°
2026-05-04 17:22 59.72894 37.86147 37723 ft 441 kts 343°
2026-05-04 17:23 59.84955 37.81680 37714 ft 441 kts 343°
2026-05-04 17:24 59.93998 37.78316 37707 ft 441 kts 343°
2026-05-04 17:25 60.06020 37.73492 37702 ft 438 kts 340°
2026-05-04 17:26 60.17821 37.67582 37694 ft 438 kts 340°
2026-05-04 17:27 60.32599 37.60240 37686 ft 437 kts 340°
2026-05-04 17:28 60.44376 37.54372 37674 ft 437 kts 339°
2026-05-04 17:29 60.61826 37.43931 37666 ft 435 kts 336°
2026-05-04 17:31 60.76313 37.34929 37669 ft 435 kts 336°
2026-05-04 17:32 60.90814 37.25871 37650 ft 437 kts 336°
2026-05-04 17:33 61.02467 37.18524 37645 ft 437 kts 336°
2026-05-04 17:34 61.14076 37.11148 37646 ft 438 kts 336°
2026-05-04 17:35 61.28634 37.01820 37644 ft 439 kts 336°
2026-05-04 17:36 61.33542 36.98760 37638 ft 440 kts 336°
2026-05-04 17:36 61.39418 36.95210 37633 ft 440 kts 337°
2026-05-04 17:37 61.45261 36.91684 37639 ft 440 kts 336°
2026-05-04 17:37 61.51144 36.88102 37640 ft 440 kts 336°
2026-05-04 17:38 61.57021 36.84500 37655 ft 440 kts 336°
2026-05-04 17:38 61.62865 36.80901 37631 ft 439 kts 336°
2026-05-04 17:39 61.71666 36.75454 37626 ft 439 kts 336°
2026-05-04 17:39 61.77525 36.71811 37630 ft 439 kts 336°
2026-05-04 17:40 61.83382 36.68155 37658 ft 439 kts 336°
2026-05-04 17:40 61.89262 36.64471 37633 ft 441 kts 336°
2026-05-04 17:41 61.95118 36.60794 37632 ft 441 kts 336°
2026-05-04 17:41 62.01010 36.57082 37631 ft 441 kts 336°
2026-05-04 17:42 62.06900 36.53355 37632 ft 441 kts 336°
2026-05-04 17:42 62.12785 36.49616 37633 ft 440 kts 336°
2026-05-04 17:43 62.18663 36.45865 37630 ft 440 kts 336°
2026-05-04 17:43 62.24508 36.42119 37638 ft 441 kts 336°
2026-05-04 17:44 62.30402 36.38326 37636 ft 442 kts 336°
2026-05-04 17:44 62.36301 36.34517 37634 ft 442 kts 336°
2026-05-04 17:45 62.42205 36.30689 37638 ft 442 kts 336°
2026-05-04 17:45 62.48098 36.26852 37639 ft 442 kts 336°
2026-05-04 17:46 62.53983 36.23004 37639 ft 441 kts 336°
2026-05-04 17:46 62.59831 36.19164 37644 ft 442 kts 335°
2026-05-04 17:47 62.65724 36.15277 37644 ft 443 kts 335°
2026-05-04 17:47 62.71627 36.11369 37643 ft 443 kts 335°
2026-05-04 17:48 62.77534 36.07443 37641 ft 443 kts 335°
2026-05-04 17:48 62.83389 36.03535 37642 ft 443 kts 335°
2026-05-04 17:49 62.89284 35.99578 37638 ft 443 kts 335°
2026-05-04 17:49 62.95176 35.95583 37688 ft 443 kts 335°
2026-05-04 17:50 63.01051 35.91573 37641 ft 445 kts 335°
2026-05-04 17:50 63.06964 35.87525 37638 ft 445 kts 335°
2026-05-04 17:51 63.12880 35.83462 37639 ft 445 kts 335°
2026-05-04 17:51 63.18794 35.79404 37640 ft 445 kts 335°
2026-05-04 17:52 63.24717 35.75340 37637 ft 445 kts 335°
2026-05-04 17:52 63.30634 35.71263 37637 ft 445 kts 335°
2026-05-04 17:53 63.36516 35.67188 37636 ft 447 kts 335°
2026-05-04 17:53 63.42462 35.63049 37634 ft 448 kts 335°
2026-05-04 17:54 63.48414 35.58891 37633 ft 448 kts 335°
2026-05-04 17:54 63.54366 35.54716 37636 ft 448 kts 335°
2026-05-04 17:55 63.60319 35.50520 37631 ft 448 kts 335°
2026-05-04 17:55 63.66210 35.46217 37627 ft 447 kts 334°
2026-05-04 17:56 63.72086 35.41624 37626 ft 447 kts 333°
2026-05-04 17:56 63.77969 35.36958 37623 ft 448 kts 333°
2026-05-04 17:57 63.83829 35.32311 37618 ft 448 kts 333°
2026-05-04 17:57 63.89733 35.27625 37648 ft 448 kts 333°
2026-05-04 17:58 63.95636 35.22925 37614 ft 447 kts 333°
2026-05-04 17:58 64.01473 35.18256 37614 ft 447 kts 333°
2026-05-04 17:59 64.07349 35.13558 37632 ft 448 kts 334°
2026-05-04 18:00 64.16292 35.06925 37612 ft 451 kts 335°
2026-05-04 18:00 64.22271 35.02567 37606 ft 451 kts 335°
2026-05-04 18:01 64.28250 34.98161 37610 ft 451 kts 335°
2026-05-04 18:01 64.34221 34.93718 37609 ft 450 kts 335°
2026-05-04 18:02 64.43127 34.87045 37603 ft 450 kts 335°
2026-05-04 18:02 64.49103 34.82623 37599 ft 452 kts 335°
2026-05-04 18:03 64.55089 34.78326 37597 ft 453 kts 336°
2026-05-04 18:03 64.61118 34.74005 37606 ft 453 kts 336°
2026-05-04 18:04 64.67141 34.69653 37611 ft 453 kts 336°
2026-05-04 18:05 64.76180 34.63064 37608 ft 453 kts 335°
2026-05-04 18:05 64.82203 34.58644 37605 ft 453 kts 335°
2026-05-04 18:06 64.91195 34.52008 37605 ft 453 kts 336°
2026-05-04 18:06 64.97243 34.47708 37606 ft 455 kts 338°
2026-05-04 18:07 65.03382 34.43905 37616 ft 456 kts 339°
2026-05-04 18:07 65.09488 34.40226 37613 ft 455 kts 339°
2026-05-04 18:08 65.15637 34.36457 37613 ft 455 kts 339°
2026-05-04 18:08 65.21773 34.32634 37620 ft 455 kts 339°
2026-05-04 18:09 65.33997 34.24936 37549 ft 455 kts 339°
2026-05-04 18:10 65.40122 34.21049 37581 ft 456 kts 339°
2026-05-04 18:10 65.46267 34.17137 37616 ft 456 kts 339°
2026-05-04 18:11 65.52393 34.13220 37617 ft 455 kts 338°
2026-05-04 18:11 65.58520 34.09279 37627 ft 455 kts 338°
2026-05-04 18:12 65.64639 34.05324 37614 ft 455 kts 338°
2026-05-04 18:12 65.70724 34.01370 37614 ft 457 kts 339°
2026-05-04 18:13 65.76878 33.97353 37646 ft 458 kts 339°
2026-05-04 18:14 65.86109 33.91292 37617 ft 457 kts 339°
2026-05-04 18:14 65.92261 33.87227 37617 ft 457 kts 339°
2026-05-04 18:15 66.04513 33.79059 37616 ft 457 kts 339°
2026-05-04 18:16 66.10661 33.74923 37617 ft 458 kts 339°
2026-05-04 18:16 66.16826 33.70755 37614 ft 460 kts 339°
2026-05-04 18:17 66.26090 33.64456 37614 ft 459 kts 339°
2026-05-04 18:18 66.35285 33.58158 37615 ft 459 kts 339°
2026-05-04 18:18 66.41634 33.55414 37614 ft 464 kts 346°
2026-05-04 18:19 66.51236 33.52027 37657 ft 465 kts 346°
2026-05-04 18:19 66.57662 33.49794 37616 ft 466 kts 346°
2026-05-04 18:20 66.64092 33.47553 37614 ft 466 kts 346°
2026-05-04 18:20 66.70489 33.45314 37625 ft 466 kts 346°
2026-05-04 18:21 66.76905 33.43056 37619 ft 466 kts 346°
2026-05-04 18:21 66.83328 33.40782 37629 ft 466 kts 346°
2026-05-04 18:22 66.89755 33.38497 37628 ft 466 kts 346°
2026-05-04 18:22 66.96176 33.36201 37622 ft 466 kts 346°
2026-05-04 18:23 67.02557 33.33908 37623 ft 466 kts 346°
2026-05-04 18:23 67.08984 33.31585 37648 ft 466 kts 346°
2026-05-04 18:24 67.15401 33.29254 37620 ft 465 kts 346°
2026-05-04 18:24 67.20735 33.27305 37308 ft 464 kts 346°
2026-05-04 18:25 67.23941 33.26130 36878 ft 465 kts 346°
2026-05-04 18:25 67.27143 33.24952 36373 ft 465 kts 346°
2026-05-04 18:25 67.30349 33.23770 35874 ft 465 kts 346°
2026-05-04 18:25 67.33552 33.22587 35406 ft 464 kts 345°
2026-05-04 18:26 67.36747 33.21402 34915 ft 464 kts 345°
2026-05-04 18:26 67.39943 33.20214 34465 ft 464 kts 345°
2026-05-04 18:26 67.43094 33.19039 34007 ft 464 kts 345°
2026-05-04 18:26 67.46288 33.17845 33544 ft 464 kts 345°
2026-05-04 18:27 67.49484 33.16647 33031 ft 464 kts 344°
2026-05-04 18:27 67.52677 33.15447 32535 ft 464 kts 344°
2026-05-04 18:27 67.55875 33.14242 32009 ft 464 kts 344°
2026-05-04 18:27 67.59081 33.13030 31495 ft 465 kts 343°
2026-05-04 18:28 67.62291 33.11812 30989 ft 466 kts 343°
2026-05-04 18:28 67.65507 33.10589 30501 ft 467 kts 343°
2026-05-04 18:28 67.68724 33.09364 30011 ft 468 kts 343°
2026-05-04 18:28 67.71916 33.08145 29503 ft 468 kts 342°
2026-05-04 18:29 67.75188 33.06892 28897 ft 469 kts 343°
2026-05-04 18:29 67.78380 33.05666 28326 ft 470 kts 343°
2026-05-04 18:29 67.81618 33.04420 27751 ft 470 kts 343°
2026-05-04 18:29 67.84858 33.03170 27207 ft 471 kts 343°
2026-05-04 18:30 67.91354 33.00655 26125 ft 471 kts 343°
2026-05-04 18:30 67.94596 32.99396 25606 ft 470 kts 344°
2026-05-04 18:30 67.97825 32.98141 25095 ft 467 kts 344°
2026-05-04 18:31 68.01030 32.96892 24632 ft 463 kts 344°
2026-05-04 18:31 68.04211 32.95647 24131 ft 460 kts 344°
2026-05-04 18:31 68.07367 32.94406 23657 ft 457 kts 344°
2026-05-04 18:31 68.10508 32.93168 23162 ft 453 kts 344°
2026-05-04 18:32 68.13616 32.91938 22588 ft 449 kts 345°
2026-05-04 18:32 68.16659 32.90731 22029 ft 445 kts 345°
2026-05-04 18:32 68.19716 32.89516 21472 ft 440 kts 345°
2026-05-04 18:32 68.22732 32.88315 20929 ft 436 kts 346°
2026-05-04 18:33 68.25716 32.87123 20399 ft 431 kts 346°
2026-05-04 18:33 68.28665 32.85938 19874 ft 427 kts 346°
2026-05-04 18:33 68.31591 32.84759 19349 ft 422 kts 346°
2026-05-04 18:33 68.34488 32.83591 18842 ft 418 kts 347°
2026-05-04 18:34 68.37320 32.82445 18370 ft 414 kts 347°
2026-05-04 18:34 68.40186 32.81282 17857 ft 409 kts 348°
2026-05-04 18:34 68.42981 32.80146 17296 ft 404 kts 348°
2026-05-04 18:34 68.45752 32.79017 16726 ft 398 kts 348°
2026-05-04 18:35 68.48440 32.77924 16182 ft 383 kts 348°
2026-05-04 18:35 68.51015 32.76721 15671 ft 368 kts 343°
2026-05-04 18:35 68.53368 32.74409 15153 ft 353 kts 333°
2026-05-04 18:35 68.55562 32.71648 14637 ft 342 kts 332°
2026-05-04 18:36 68.57645 32.68916 14134 ft 332 kts 332°
2026-05-04 18:36 68.59700 32.66211 13640 ft 324 kts 332°
2026-05-04 18:36 68.61710 32.63568 13115 ft 316 kts 332°
2026-05-04 18:36 68.63676 32.60987 12525 ft 311 kts 332°
2026-05-04 18:37 68.65634 32.58412 11705 ft 313 kts 332°
2026-05-04 18:37 68.67611 32.55809 10899 ft 315 kts 332°
2026-05-04 18:37 68.69589 32.53203 10172 ft 315 kts 332°
2026-05-04 18:37 68.71563 32.50599 9463 ft 314 kts 332°
2026-05-04 18:38 68.73527 32.48003 8686 ft 312 kts 332°
2026-05-04 18:38 68.75477 32.45422 7930 ft 310 kts 332°
2026-05-04 18:38 68.77383 32.42841 7210 ft 307 kts 330°
2026-05-04 18:38 68.79224 32.39900 6476 ft 305 kts 326°
2026-05-04 18:39 68.80997 32.36704 5734 ft 303 kts 324°
2026-05-04 18:39 68.82734 32.33396 4870 ft 304 kts 324°
2026-05-04 18:39 68.84669 32.31062 3996 ft 307 kts 349°
2026-05-04 18:39 68.86784 32.31566 3148 ft 309 kts 20°
2026-05-04 18:40 68.88506 32.34919 2500 ft 301 kts 50°
2026-05-04 18:40 68.89628 32.39620 2229 ft 282 kts 60°
2026-05-04 18:40 68.90529 32.44182 2192 ft 257 kts 70°
2026-05-04 18:40 68.90649 32.48702 2191 ft 225 kts 110°
2026-05-04 18:41 68.89949 32.52252 2228 ft 203 kts 130°
2026-05-04 18:41 68.88998 32.54974 2194 ft 184 kts 145°
2026-05-04 18:41 68.88010 32.56833 2219 ft 159 kts 149°
2026-05-04 18:41 68.87149 32.58437 2217 ft 144 kts 149°
2026-05-04 18:42 68.86317 32.60003 2051 ft 145 kts 148°
2026-05-04 18:42 68.85490 32.61559 1835 ft 142 kts 149°
2026-05-04 18:42 68.84683 32.63062 1627 ft 137 kts 149°
2026-05-04 18:42 68.83905 32.64510 1445 ft 138 kts 149°
2026-05-04 18:43 68.83057 32.66078 1244 ft 148 kts 148°
2026-05-04 18:43 68.82209 32.67658 1014 ft 147 kts 147°
2026-05-04 18:43 68.81364 32.69229 807 ft 145 kts 147°
2026-05-04 18:43 68.80551 32.70754 622 ft 140 kts 144°
2026-05-04 18:44 68.79772 32.72282 478 ft 135 kts 147°
2026-05-04 18:44 68.79243 32.73235 361 ft 134 kts 146°
2026-05-04 18:44 68.78282 32.74997 278 ft 99 kts 145°
2026-05-04 18:44 68.77955 32.75601 277 ft 15 kts 146°
2026-05-04 18:45 68.77861 32.75777 277 ft 23 kts 145°
2026-05-04 18:45 68.77727 32.76028 276 ft 24 kts 145°
2026-05-04 18:45 68.77594 32.76275 277 ft 23 kts 145°
2026-05-04 18:45 68.77463 32.76512 277 ft 23 kts 145°
2026-05-04 18:46 68.77332 32.76763 277 ft 20 kts 143°
2026-05-04 18:46 68.77287 32.77042 278 ft 16 kts 70°
2026-05-04 18:46 68.77357 32.77225 278 ft 13 kts 353°
2026-05-04 18:46 68.77434 32.77079 278 ft 14 kts 293°
2026-05-04 18:47 68.77436 32.76799 278 ft 15 kts 266°
2026-05-04 18:47 68.77465 32.76513 277 ft 16 kts 319°
2026-05-04 18:47 68.77562 32.76329 278 ft 18 kts 326°
2026-05-04 18:47 68.77688 32.76086 276 ft 25 kts 323°
2026-05-04 18:48 68.77848 32.75801 276 ft 29 kts 326°
2026-05-04 18:48 68.78027 32.75470 275 ft 33 kts 328°
2026-05-04 18:48 68.78219 32.75119 277 ft 31 kts 327°
2026-05-04 18:48 68.78345 32.74882 278 ft 19 kts 327°
2026-05-04 18:49 68.78403 32.74776 279 ft 2 kts 325°
2026-05-04 18:49 68.78442 32.74712 276 ft 11 kts 334°
2026-05-04 18:49 68.78498 32.74666 275 ft 6 kts 326°
2026-05-04 18:49 68.78478 32.74617 275 ft 7 kts 144°
2026-05-04 18:50 68.78424 32.74730 277 ft 13 kts 143°
2026-05-04 18:50 68.78334 32.74906 278 ft 15 kts 144°
2026-05-04 18:50 68.78316 32.75155 278 ft 13 kts 59°
2026-05-04 18:50 68.78360 32.75338 278 ft 15 kts 56°
2026-05-04 18:51 68.78417 32.75570 278 ft 11 kts 57°
2026-05-04 18:51 68.78453 32.75615 278 ft 8 kts 326°
2026-05-04 18:51 68.78490 32.75580 278 ft 5 kts 24°
2026-05-04 18:51 68.78515 32.75657 278 ft 0 kts 54°